"Pseudo-MPEC" for 5G4FAAB

Created 2016 Sep 30 23:33:01 UT using Find_Orb

Astrometry:
     5G4FAAB  C2005 04 11.62603 15 14 01.87 -25 20 26.1          14.0 R      E12
     5G4FAAB  C2005 04 11.62627 15 14 15.24 -25 21 03.9                      E12
     5G4FAAB  C2005 04 11.63766 15 25 34.21 -25 50 32.5                      E12
     5G4FAAB  C2005 04 11.63790 15 25 47.81 -25 51 05.3                      E12
     5G4FAAB  C2005 04 11.65169 15 39 55.98 -26 21 22.6                      E12
     5G4FAAB  C2005 04 11.65193 15 40 09.90 -26 21 51.0                      E12
     5G4FAAB  C2005 04 11.66304 15 51 55.20 -26 41 39.0                      E12
     5G4FAAB  C2005 04 11.66328 15 52 09.99 -26 42 00.6                      E12
     5G4FAAB IC2005 04 11.67750 16 07 44.28 -27 00 47.2                      E12
     5G4FAAB  C2005 04 11.67774 16 07 59.20 -27 00 59.4                      E12
     5G4FAAB  C2005 04 11.68693 16 18 22.81 -27 08 50.0                      E12
     5G4FAAB  C2005 04 11.68717 16 18 38.07 -27 08 58.7                      E12
     5G4FAAB  C2005 04 11.69544 16 28 13.56 -27 12 54.0                      E12
     5G4FAAB  C2005 04 11.69568 16 28 29.42 -27 12 57.3                      E12

Station data:
(E12) Siding Spring Survey (S31.2735 E149.0642)  Australia/NSW.   Observers R.
    H. McNaught, S. Larson, et.al.  Measurer R. H. McNaught.  0.5-m Uppsala
    Schmidt + CCD.

Orbital elements:  5G4FAAB
   Perigee 2005 Apr 11.981014 +/- 0.00136 TT = 23:32:39 (JD 2453472.481014)
Epoch 2005 Apr 12.0 TT = JDT 2453472.5                        Find_Orb
M   7.635444 +/- 0.55               (J2000 equatorial)
n 402.160637299 +/- 1.41            Peri.   50.021900 +/- 0.40
a 39234.71171 +/- 92                Node   338.089892 +/- 0.008
e   0.31632378 +/- 0.0017           Incl.   27.778715 +/- 0.0021
P1289.01m/0.895d           H 30.8   G  0.15   U 13.0  
q 26823.83927 +/- 113    Q 51645.58415 +/- 103
From 14 observations 2005 Apr. 11 (1.7 hr); mean residual 5".191
Residuals in arcseconds: 
050411 E12 7.76+ 1.34-    050411 E12 8.87- .894+    050411 E12 9.57+ .323-    
050411 E12 2.26- .506+    050411 E12 2.04+ .530-    050411 E12 6.69- .433+    
050411 E12 3.07+ .983-    050411 E12 6.71- .668+    050411 E12 3.81+ .323-    
050411 E12 8.99- .981+    050411 E12 13.3+ 2.06-    050411 E12 9.81- .475+    
050411 E12 5.64+ .900+    050411 E12 1.82- .741+    

Ephemerides (geocentric):
Date (UTC) HH   RA              Dec         delta   r     elong  mag " sig PA
---- -- -- --  ------------   ------------  ------ ------ -----  --- ---- ---
2005 04 11 12  13 09 36.381   -18 27 06.55   51454 1.0026 169.7 14.1  259 110
2005 04 11 13  13 46 28.857   -21 32 13.07   51627 1.0026 165.5 14.3  143 106
2005 04 11 14  14 25 00.874   -24 06 27.05   51188 1.0026 158.0 14.5   61 102
2005 04 11 15  15 06 07.704   -26 05 59.44   50137 1.0026 149.3 14.7   10  91
2005 04 11 16  15 50 46.325   -27 23 20.18   48480 1.0026 139.8 14.9  6.0  96
2005 04 11 17  16 39 55.964   -27 45 57.49   46227 1.0025 129.3 15.1   18  93
2005 04 11 18  17 34 37.343   -26 54 21.88   43406 1.0025 117.5 15.3   98  85
2005 04 11 19  18 35 53.095   -24 19 42.33   40079 1.0024 103.7 15.6  257  77
2005 04 11 20  19 44 56.816   -19 22 00.47   36381 1.0024  87.3 16.0  532  70
2005 04 11 21  21 03 45.864   -11 14 04.05   32589 1.0023  67.0 16.8  973  65
2005 04 11 22  22 36 13.282   +00 30 25.97   29232 1.0023  41.9 18?? 1583  63
2005 04 11 23  00 29 04.720   +14 24 12.05   27134 1.0022  14.1 25?? 2178  66
2005 04 12 00  02 45 38.022   +25 12 18.93   27077 1.0023  25.9 21?? 2353  78
2005 04 12 01  05 05 54.549   +27 31 30.27   29085 1.0023  56.0 17?? 1993  94
2005 04 12 02  06 59 38.833   +22 51 45.43   32401 1.0024  81.5 16.0 1419 106
2005 04 12 03  08 22 58.902   +15 44 11.78   36187 1.0025 102.0 15.4  891 113
2005 04 12 04  09 25 48.463   +08 34 25.23   39899 1.0026 118.6 15.1  473 116
2005 04 12 05  10 16 24.101   +02 05 42.19   43249 1.0027 132.4 14.9  154 115
2005 04 12 06  10 59 47.786   -03 36 13.89   46098 1.0028 144.1 14.7   94 122
2005 04 12 07  11 39 01.111   -08 35 39.12   48380 1.0028 154.3 14.5  290 118
2005 04 12 08  12 16 01.060   -12 58 05.05   50068 1.0028 163.0 14.3  451 116
2005 04 12 09  12 52 10.649   -16 47 49.38   51148 1.0029 169.0 14.1  587 113
2005 04 12 10  13 28 35.480   -20 07 15.26   51618 1.0029 168.6 14.2  704 110
2005 04 12 11  14 06 13.127   -22 56 34.20   51475 1.0029 162.5 14.4  808 106
2005 04 12 12  14 45 58.719   -25 13 24.00   50720 1.0029 154.4 14.6  902 102
2005 04 12 13  15 28 48.182   -26 52 09.34   49355 1.0029 145.4 14.8  988  97
2005 04 12 14  16 15 39.612   -27 42 56.53   47389 1.0028 135.4 15.0 1069  92
2005 04 12 15  17 07 33.027   -27 29 54.96   44838 1.0028 124.3 15.2 1144  86
2005 04 12 16  18 05 29.689   -25 49 04.35   41745 1.0027 111.5 15.4 1213  79
2005 04 12 17  19 10 35.652   -22 05 55.06   38204 1.0027  96.5 15.7 1269  72
2005 04 12 18  20 24 20.799   -15 35 29.61   34410 1.0026  78.2 16.3 1300  66
2005 04 12 19  21 49 31.135   -05 34 58.30   30757 1.0025  55.6 17?? 1280  62
2005 04 12 20  23 31 32.010   +07 40 07.96   27936 1.0025  28.1 21?? 1177  63
2005 04 12 21  01 37 11.749   +20 49 30.44   26827 1.0025  12.2 27?? 1006  71
2005 04 12 22  03 59 57.918   +27 32 34.87   27895 1.0025  40.9 18??  871  86
2005 04 12 23  06 08 52.858   +25 40 13.66   30692 1.0026  69.0 16.6  845 101
2005 04 13 00  07 45 55.593   +19 16 12.87   34338 1.0027  91.8 15.7  899 111
2005 04 13 01  08 57 24.663   +11 57 35.92   38134 1.0028 110.1 15.3  986 116
2005 04 13 02  09 53 07.347   +05 06 53.33   41683 1.0029 125.2 15.0 1081 118
2005 04 13 03  10 39 31.859   -00 57 28.74   44785 1.0030 137.8 14.8 1177 118
2005 04 13 04  11 20 29.062   -06 16 46.01   47347 1.0030 148.8 14.6 1270 117
2005 04 13 05  11 58 22.071   -10 56 25.88   49324 1.0031 158.3 14.4 1363 116
2005 04 13 06  12 34 47.598   -15 01 30.58   50699 1.0031 166.1 14.2 1457 114
2005 04 13 07  13 10 58.155   -18 35 21.30   51464 1.0031 169.8 14.1 1555 111
2005 04 13 08  13 47 54.303   -21 39 15.20   51618 1.0031 166.5 14.3 1660 108
2005 04 13 09  14 26 31.804   -24 12 07.87   51159 1.0031 159.3 14.5 1774 104
2005 04 13 10  15 07 45.880   -26 10 03.52   50089 1.0031 150.7 14.7 1903 100
2005 04 13 11  15 52 33.460   -27 25 23.27   48412 1.0031 141.2 14.9 2054  95
2005 04 13 12  16 41 53.662   -27 45 23.52   46140 1.0031 130.7 15.1 2235  89
2005 04 13 13  17 36 47.039   -26 50 19.31   43302 1.0030 118.8 15.3 2459  82